FW3988 Weather Reports


time (UTC)temp
C
wind
direction
speed
KPH
gust
KPH
rain 1hr
cm
rain 24hr
cm
rain mn
cm
humidity
%
barometer
mb
20260831000133 32 242 6.4 17.7 0.00 2.39 2.11 71 1009.0
20260830234519 32 251 6.4 16.1 0.00 2.41 2.11 72 1009.6
20260830233054 32 257 6.4 12.9 0.00 2.41 2.11 72 1009.7
20260830231536 32 236 6.4 11.3 0.00 2.41 2.11 73 1009.6
20260830230136 32 227 6.4 17.7 0.00 2.41 2.11 74 1009.2
20260830224528 32 233 8.0 19.3 0.00 2.41 2.11 72 1009.5
20260830223029 32 261 9.7 14.5 0.00 2.41 2.11 68 1009.7
20260830221532 32 262 4.8 14.5 0.00 2.41 2.11 70 1009.7
20260830220127 32 248 6.4 14.5 0.00 2.41 2.11 69 1009.7
20260830214513 32 235 8.0 16.1 0.00 2.41 2.11 71 1009.7
20260830213101 32 241 6.4 14.5 0.00 2.41 2.11 69 1009.8
20260830211547 32 217 4.8 14.5 0.00 2.41 2.11 68 1009.9
20260830210135 32 229 8.0 16.1 0.00 2.41 2.11 67 1009.9
20260830204504 32 257 9.7 19.3 0.00 2.41 2.11 69 1010.1
20260830203055 32 226 11.3 19.3 0.00 2.41 2.11 69 1010.2
20260830201552 33 225 8.0 19.3 0.00 2.41 2.11 67 1010.4
20260830200123 33 267 3.2 9.7 0.00 2.41 2.11 62 1010.5
20260830194506 33 243 3.2 8.0 0.00 2.41 2.11 63 1010.9
20260830193106 32 294 4.8 9.7 0.00 2.41 2.11 62 1011.2
20260830191540 32 273 0.0 8.0 0.00 2.41 2.11 66 1011.6
20260830190131 32 288 1.6 9.7 0.00 2.41 2.11 63 1012.0
20260830184519 32 235 4.8 9.7 0.00 2.41 2.11 68 1012.4
20260830183004 32 276 3.2 8.0 0.00 2.41 2.11 68 1012.6
20260830181555 31 225 4.8 9.7 0.00 2.41 2.11 68 1012.9
20260830180141 31 225 1.6 9.7 0.00 2.41 2.11 68 1013.1
20260830174510 30 217 6.4 11.3 0.00 2.41 2.11 71 1013.3
20260830173106 30 214 1.6 12.9 0.00 2.41 2.11 70 1013.4
20260830171542 30 232 6.4 11.3 0.00 2.41 2.11 69 1013.5
20260830170005 31 229 6.4 12.9 0.00 2.41 2.11 67 1013.6
20260830164547 31 229 1.6 9.7 0.00 2.41 2.11 66 1013.9
20260830163012 30 227 1.6 9.7 0.00 2.41 2.11 67 1013.7
20260830161554 30 223 1.6 4.8 0.00 2.41 2.11 68 1013.6
20260830160138 30 217 0.0 3.2 0.00 2.41 2.11 72 1013.5
20260830154505 29 253 0.0 3.2 0.00 2.41 2.11 72 1013.6
20260830153104 28 5 0.0 3.2 0.00 2.41 2.11 76 1013.5
20260830151534 27 5 1.6 4.8 0.00 2.41 2.11 79 1013.4
20260830150125 26 5 0.0 6.4 0.00 2.41 2.11 82 1013.5
20260830144531 26 40 3.2 8.0 0.00 2.41 2.11 85 1013.4
20260830143003 25 27 1.6 6.4 0.00 2.41 2.11 87 1013.9
20260830141551 25 24 3.2 9.7 0.00 2.41 2.11 87 1013.8
20260830140015 25 57 4.8 9.7 0.00 2.41 2.11 87 1013.8
20260830134605 24 54 3.2 11.3 0.00 2.41 2.11 89 1013.9
20260830133049 24 46 4.8 16.1 0.00 2.41 2.11 89 1013.5
20260830131536 24 65 4.8 12.9 0.00 2.41 2.11 89 1013.4
20260830130128 24 51 8.0 19.3 0.00 2.41 2.11 87 1013.5
20260830124548 23 38 8.0 16.1 0.05 2.41 2.11 87 1013.1
20260830123040 23 355 8.0 14.5 1.50 2.41 2.11 88 1012.5
20260830121531 23 51 8.0 17.7 2.03 2.41 2.11 87 1012.7
20260830120141 23 223 0.0 12.9 2.11 2.41 2.11 89 1012.6
20260830114525 22 264 0.0 11.3 2.06 2.36 2.06 92 1013.6
20260830113026 23 192 3.2 22.5 0.53 0.84 0.53 91 1015.0
20260830111523 25 189 4.8 25.7 0.08 0.38 0.08 91 1014.8
20260830110127 25 126 9.7 27.4 0.03 0.33 0.03 89 1014.5
20260830104505 26 128 8.0 22.5 0.00 0.36 0.00 87 1014.0
20260830103007 26 43 1.6 6.4 0.00 0.36 0.00 87 1013.2
20260830101553 26 35 4.8 9.7 0.00 0.36 0.00 87 1012.8
20260830100133 26 355 4.8 8.0 0.00 0.36 0.00 87 1012.7
20260830094527 26 9 3.2 9.7 0.00 0.48 0.00 87 1012.3
20260830093015 26 16 1.6 6.4 0.00 0.48 0.00 87 1012.3
20260830091547 26 18 3.2 8.0 0.00 0.48 0.00 87 1012.0
20260830090142 26 34 3.2 12.9 0.00 0.48 0.00 88 1012.1
20260830084511 26 30 3.2 8.0 0.00 0.48 0.00 87 1012.7
20260830083056 27 5 3.2 6.4 0.00 0.48 0.00 85 1012.9
20260830081542 27 28 1.6 6.4 0.00 0.48 0.00 84 1012.9
20260830080130 27 333 0.0 1.6 0.00 0.48 0.00 84 1012.8
20260830074524 27 333 0.0 4.8 0.00 1.93 0.00 85 1013.2
20260830073022 27 332 1.6 3.2 0.00 1.93 0.00 86 1013.3
20260830071550 27 332 0.0 3.2 0.00 1.93 0.00 85 1013.3
20260830070138 27 74 1.6 3.2 0.00 1.93 0.00 86 1013.3
20260830064551 27 74 0.0 3.2 0.00 1.93 1.93 86 1013.4
20260830063101 27 76 1.6 6.4 0.00 1.93 1.93 85 1013.6
20260830061527 27 65 3.2 6.4 0.00 1.93 1.93 84 1013.6
20260830060127 27 101 1.6 4.8 0.00 1.93 1.93 85 1013.7
20260830054544 27 207 0.0 3.2 0.00 1.93 1.93 87 1013.7
20260830053041 27 142 1.6 3.2 0.00 1.93 1.93 87 1013.7
20260830051543 27 55 0.0 3.2 0.00 1.93 1.93 86 1013.6
20260830050136 27 55 4.8 9.7 0.00 1.93 1.93 85 1013.3
20260830044516 27 101 3.2 6.4 0.00 1.93 1.93 85 1013.0
20260830043002 27 331 0.0 4.8 0.00 1.93 1.93 86 1012.7
20260830041601 26 327 1.6 3.2 0.00 1.93 1.93 87 1012.5
20260830040125 26 26 0.0 6.4 0.00 1.93 1.93 87 1012.3
20260830034509 26 13 4.8 14.5 0.00 1.93 1.93 88 1012.0
20260830033100 26 320 6.4 14.5 0.00 1.93 1.93 88 1012.0
20260830031544 26 323 6.4 14.5 0.03 1.93 1.93 89 1011.8
20260830030131 26 319 4.8 9.7 0.03 1.93 1.93 88 1012.1
20260830024526 26 277 3.2 6.4 0.05 1.93 1.93 88 1012.0
20260830023025 26 355 3.2 9.7 0.13 1.93 1.93 87 1012.2
20260830021504 26 322 4.8 9.7 0.15 1.91 1.91 88 1012.0
20260830020150 26 348 3.2 8.0 0.20 1.91 1.91 88 1011.8
20260830014522 26 343 3.2 9.7 0.18 1.85 1.85 86 1011.5
20260830013009 26 22 3.2 14.5 0.13 1.80 1.80 85 1011.4
20260830011550 26 15 6.4 14.5 0.10 1.78 1.78 84 1011.4
20260830010129 26 360 12.9 20.9 0.05 1.70 1.73 81 1011.5
20260830004530 27 35 12.9 25.7 0.05 1.68 1.68 76 1011.3
20260830003019 28 55 11.3 22.5 0.05 1.68 1.68 73 1011.0
20260830001552 28 310 0.0 4.8 0.05 1.68 1.68 79 1010.5